GEFSNE_con_probscp_294.txt.gz
Probability
0 0 0 0 0 0 0 0 0 0 0 0 0 0 0 0 0 0 0 0 0 0 0 0 0 0 0 0 0 0 0 0 0 0 0 0 0 0
0 0 0 0 0 0 0 0 0 0 0 0 0 0 0 0 0 0 0 0 0 0 0 0 0 0 0 0 0 0 0 0 0 0 0 0 0 0
0 0 0 0 0 0 0 0 0 0 0 0 0 0 0 0 0 0 0 0 0 0 0 0 0 0 0 0 0 0 0 0 0 0 0 0 0 0
0 1 1 0 0 0 0 0 0 0 0 0 0 0 0 0 0 0 0 0 0 0 0 0 0 0 0 0 0 0 0 0 0 0 0 0 0 0
1 1 2 1 0 0 0 0 1 1 1 1 1 0 0 0 0 0 0 0 0 0 0 0 0 0 0 0 0 0 0 0 0 0 0 0 0 0
0 1 2 1 0 0 0 0 1 2 2 2 1 0 0 0 0 0 0 0 0 0 0 0 0 0 0 0 0 0 0 0 0 0 0 0 0 0
0 0 1 1 0 0 0 0 1 1 1 2 1 0 0 0 0 0 0 0 0 0 0 0 0 0 0 0 0 0 0 0 0 0 0 0 0 0
0 0 0 0 0 0 0 0 0 0 0 1 1 1 0 0 0 0 0 0 0 0 0 0 0 0 0 0 0 0 0 0 0 0 0 0 0 0
0 0 0 0 0 0 0 0 0 0 0 0 1 1 1 0 0 0 0 0 0 0 0 0 0 0 0 0 0 0 0 0 0 0 0 0 0 0
0 0 0 0 0 0 0 0 0 0 0 0 1 1 1 1 0 1 1 1 1 1 1 2 2 2 1 1 0 0 0 0 0 0 0 0 0 0
1 1 0 0 0 0 0 0 0 0 0 0 0 0 0 0 0 1 3 3 3 3 3 4 6 5 2 1 0 0 0 0 0 0 0 0 0 0
3 3 1 1 0 0 0 0 0 0 1 1 1 1 1 1 1 1 3 5 6 6 5 6 7 6 4 2 1 0 0 0 0 0 0 0 0 0
6 5 3 2 1 0 0 0 0 1 2 2 2 3 3 4 4 4 5 7 8 8 7 7 7 6 5 5 3 1 0 0 0 0 0 0 0 0
6 5 3 2 1 0 0 1 1 1 3 3 3 4 6 7 8 7 7 8 9 9 9 9 8 7 7 7 4 1 1 1 0 0 0 0 0 0
3 3 1 1 0 0 1 1 1 2 3 4 4 5 6 7 8 9 8 7 8 8 9 10 9 7 7 8 5 2 1 0 0 0 0 0 0 0
1 1 1 1 1 1 2 1 1 3 4 5 5 5 5 5 7 9 9 7 7 7 7 9 9 8 8 8 6 3 1 0 0 1 1 0 0 0
1 2 3 4 3 4 4 4 3 4 5 5 5 5 5 5 6 8 9 9 8 6 5 6 7 7 7 7 5 4 2 1 1 1 1 0 0 0
1 3 4 4 4 5 5 6 5 5 5 5 5 5 6 5 5 6 8 9 8 7 5 4 4 5 5 5 4 4 4 2 1 1 1 1 0 1
1 3 3 3 2 3 4 5 5 5 5 6 6 6 6 6 4 4 6 7 7 7 5 3 3 3 4 4 3 3 3 3 1 0 0 1 1 1
1 2 2 1 0 1 3 4 4 5 6 6 6 6 6 5 4 3 4 4 5 5 4 3 3 3 3 3 3 2 1 1 1 0 0 0 0 1
1 1 1 0 0 1 2 3 4 5 6 6 6 6 5 4 4 4 3 3 4 4 3 3 3 3 3 3 3 1 0 0 0 0 0 0 0 0
0 0 0 0 0 1 2 3 5 5 6 6 6 5 4 3 3 4 4 3 3 3 3 3 3 3 3 3 2 1 0 0 0 0 0 0 0 0
0 0 0 0 0 0 1 3 4 4 4 4 4 4 2 2 3 4 4 3 3 3 3 3 3 3 3 3 2 1 0 0 0 0 0 0 0 0

GEFSNE_con_probscp_300.txt.gz
Probability
2 2 3 4 4 4 3 3 3 3 1 0 0 0 0 0 0 1 0 0 0 0 0 0 0 0 0 0 0 0 0 0 0 0 0 0 0 1
3 2 2 3 3 3 3 3 3 3 2 1 0 0 0 0 1 1 1 0 0 0 0 0 0 0 0 0 0 0 0 0 0 0 0 0 0 1
4 2 1 1 1 2 4 4 4 3 2 1 0 0 0 1 2 2 1 0 0 0 0 0 0 0 0 0 0 0 0 0 0 0 0 0 0 1
4 3 2 1 1 3 4 4 4 3 2 1 1 0 0 1 3 2 1 0 0 0 0 0 0 0 0 0 0 0 0 0 0 0 0 0 0 0
4 4 3 2 2 3 4 4 4 2 1 0 0 0 1 3 4 2 1 1 1 0 0 0 0 0 0 0 0 0 0 0 0 0 0 0 0 0
4 3 2 1 1 2 3 4 3 2 0 0 0 0 2 5 6 3 1 1 1 0 0 0 1 1 1 0 0 0 0 0 0 0 0 0 0 0
5 4 2 1 0 1 1 2 2 1 0 0 1 2 4 7 8 5 2 1 0 0 0 1 1 2 2 1 1 0 0 0 0 0 0 0 0 0
9 8 5 3 2 1 1 0 1 1 0 1 3 5 7 8 9 8 4 2 1 2 3 2 2 4 3 2 1 0 0 0 0 0 0 0 0 0
13 11 8 5 5 5 4 2 2 1 1 2 4 6 8 9 10 10 8 4 3 5 6 5 5 5 4 3 2 1 0 0 0 0 0 0 0 0
12 12 10 8 7 7 7 7 6 5 3 2 3 4 5 7 9 10 9 6 5 7 9 9 7 6 6 7 5 2 0 0 0 0 0 0 0 0
12 11 10 9 7 6 9 10 10 8 5 3 2 1 1 3 5 8 9 9 7 8 11 11 9 9 9 10 8 5 2 0 0 0 0 0 0 0
14 13 10 7 5 4 7 12 12 10 7 6 5 4 3 4 5 8 12 13 11 11 12 12 11 10 10 11 11 9 5 2 1 1 0 0 0 0
16 15 11 6 2 1 4 9 10 9 9 9 9 9 9 10 10 12 14 15 14 13 13 12 11 10 10 10 10 9 8 6 5 3 1 0 0 0
19 17 13 6 2 0 2 4 4 5 9 11 11 12 13 14 13 13 14 14 13 12 13 12 11 10 10 9 8 8 8 8 7 6 3 1 0 0
19 16 10 4 1 0 0 1 1 4 9 11 11 12 14 15 13 11 11 11 10 10 12 14 13 12 11 10 8 7 7 7 8 8 6 3 1 1
14 12 6 3 3 3 3 3 4 5 9 11 11 11 13 14 13 11 9 8 7 8 12 14 14 14 13 11 9 7 6 6 7 8 8 6 3 2
12 9 7 6 6 7 7 7 7 7 9 9 9 10 11 12 12 11 9 7 6 7 9 11 13 14 13 11 9 7 6 6 7 8 9 7 4 2
10 9 8 7 6 7 8 9 8 8 7 7 7 8 8 9 10 10 9 7 6 6 7 8 10 12 11 9 8 7 6 6 7 8 8 7 4 2
10 9 8 6 5 5 6 7 8 7 6 5 5 6 6 7 7 8 7 7 6 6 6 7 8 9 9 8 7 5 5 6 7 7 7 6 4 2
9 9 9 8 6 6 6 6 7 6 5 4 3 4 5 6 6 6 6 6 6 6 6 7 7 8 8 8 7 5 4 4 5 5 4 4 3 1
7 8 9 8 7 7 7 6 6 5 4 3 3 3 4 5 6 6 6 6 6 6 7 8 9 7 7 8 7 4 3 2 3 3 3 2 1 1
4 5 6 6 7 7 7 6 5 4 3 3 3 3 3 4 6 6 6 6 6 6 7 9 10 8 6 6 5 4 2 1 1 1 1 1 1 1
3 4 4 5 6 7 7 6 5 4 3 3 3 3 3 4 6 6 6 6 6 6 7 10 10 8 6 6 5 4 2 1 0 0 0 0 1 0

GEFSNE_con_probscp_306.txt.gz
Probability
10 10 9 8 7 6 5 6 6 5 4 3 3 4 4 3 2 2 1 1 0 0 0 0 0 0 0 0 0 0 0 0 0 0 0 0 0 0
10 11 10 8 6 5 4 5 7 6 4 3 3 3 3 3 3 3 3 2 1 0 0 0 0 0 0 0 0 0 0 0 0 0 0 0 0 0
12 11 10 8 7 5 4 5 7 7 5 4 4 4 3 4 4 5 5 4 3 2 1 0 0 0 0 0 0 0 0 0 0 0 0 0 0 0
14 13 11 10 9 7 5 7 9 9 8 6 5 6 6 5 5 4 4 4 3 2 2 1 0 0 0 0 0 0 0 0 0 0 0 0 0 0
17 16 15 14 13 10 8 9 10 9 9 8 8 8 8 6 5 4 2 2 2 1 2 2 1 0 0 0 0 0 0 0 0 0 0 0 0 0
19 18 17 15 13 11 10 11 10 9 9 9 9 9 9 7 5 4 2 1 1 1 1 2 2 1 1 0 0 0 0 0 0 0 0 0 0 0
19 18 16 13 11 10 9 9 9 9 9 8 7 8 8 7 6 4 2 1 1 2 2 2 3 3 3 2 1 0 0 0 0 0 0 0 0 0
21 19 14 10 9 8 7 6 6 6 7 7 7 7 8 8 8 7 5 3 2 2 2 2 2 4 5 5 4 1 0 0 0 0 0 0 0 0
24 22 16 12 11 10 7 5 3 3 4 6 7 8 9 11 12 10 7 5 3 2 2 2 2 4 6 6 5 1 0 0 0 0 0 0 0 0
25 24 20 17 13 11 11 9 8 5 3 3 5 7 8 11 12 10 8 6 5 4 5 4 4 6 7 6 4 2 0 0 0 0 0 0 0 0
24 21 19 17 12 10 12 15 15 12 7 3 3 4 5 6 7 7 8 8 8 8 9 9 8 8 8 8 7 4 1 0 0 0 0 0 0 0
23 19 14 11 9 7 11 16 17 16 12 8 6 5 5 5 5 7 9 11 11 12 13 13 11 10 10 10 10 9 5 2 1 0 0 0 0 0
24 21 14 8 5 4 9 14 14 13 13 12 10 9 9 8 8 9 12 13 14 14 14 14 13 12 10 9 10 10 8 5 3 2 1 1 0 0
23 20 15 8 3 1 4 8 8 9 12 13 11 11 11 11 10 11 12 14 14 14 14 14 14 13 11 8 8 8 8 7 7 6 4 3 1 0
16 14 10 6 2 1 2 2 3 7 11 12 12 11 11 11 10 10 11 12 12 12 12 12 13 12 11 9 8 8 8 8 10 10 7 4 2 1
10 9 8 5 4 4 4 3 4 7 10 11 11 10 10 10 10 10 11 11 11 11 11 11 12 12 12 10 9 8 8 9 10 11 9 6 4 3
11 12 12 10 9 9 9 8 7 8 9 9 9 9 9 9 10 11 12 12 12 11 11 11 11 11 11 11 9 8 8 8 10 11 9 7 7 5
10 13 15 14 14 15 14 12 10 9 9 8 8 9 10 10 10 11 12 12 11 11 11 11 11 10 10 10 9 8 8 9 10 9 8 7 7 6
8 11 13 13 16 17 16 14 13 11 10 8 8 9 10 10 9 9 10 9 8 8 9 10 10 10 10 10 9 9 9 9 9 7 5 5 5 5
9 10 11 12 15 16 14 14 14 14 13 10 9 10 9 7 6 7 7 6 5 5 6 8 9 9 9 9 10 9 8 9 8 6 5 5 4 4
8 10 10 11 13 14 13 13 15 15 15 13 11 10 8 5 4 4 4 4 3 3 4 5 6 7 8 8 8 8 7 6 6 5 5 5 4 3
6 7 8 9 10 11 13 13 14 15 15 13 11 9 7 5 4 3 3 3 3 3 3 3 4 5 6 6 5 4 3 3 3 2 2 3 3 2
4 5 6 6 7 9 11 12 12 14 14 12 10 8 6 5 5 4 3 3 3 2 2 3 4 4 4 4 4 2 1 1 1 1 1 1 1 1

GEFSNE_con_probscp_312.txt.gz
Probability
0 0 0 0 1 1 1 0 0 0 0 0 0 0 0 0 0 0 0 0 0 0 0 0 0 0 0 0 0 0 0 0 0 0 0 0 0 0
0 0 0 0 0 1 0 0 0 0 0 0 0 0 0 0 0 0 0 0 0 0 0 0 0 0 0 0 0 0 0 0 0 0 0 0 0 0
1 1 1 1 1 2 1 0 0 0 0 0 0 0 0 0 0 0 0 0 0 0 0 0 0 0 0 0 0 0 0 0 0 0 0 0 0 0
3 3 3 2 3 3 2 1 0 0 0 0 0 0 0 0 0 0 0 0 0 0 0 0 0 0 0 0 0 0 0 0 0 0 0 0 0 0
7 6 5 4 4 3 3 2 0 0 0 0 0 0 0 0 0 0 0 0 0 0 0 0 0 0 0 0 0 0 0 0 0 0 0 0 0 0
11 9 6 5 5 4 3 2 1 0 0 0 0 0 0 0 0 0 0 0 0 0 0 0 0 0 0 0 0 0 0 0 0 0 0 0 0 0
13 12 9 7 6 4 3 3 2 1 1 1 0 0 0 1 1 0 0 0 0 0 0 0 0 0 0 0 0 0 0 0 0 0 0 0 0 0
13 14 12 9 6 5 3 3 2 2 2 2 1 1 1 1 2 1 0 0 0 0 0 0 0 0 0 0 0 0 0 0 0 0 0 0 0 0
12 12 12 9 7 6 4 3 2 3 3 3 3 2 1 1 2 2 1 0 0 0 0 0 0 0 0 0 0 0 0 0 0 0 0 0 0 0
9 10 9 8 7 7 6 4 3 3 3 3 3 2 1 0 1 1 1 0 1 1 0 0 0 0 0 0 0 0 0 0 0 0 0 0 0 0
7 7 8 7 6 7 7 6 4 3 3 2 2 2 1 0 0 1 1 2 2 2 1 0 0 0 0 0 0 0 0 0 0 0 0 0 0 0
6 7 7 6 5 4 5 6 5 4 3 3 2 1 1 1 1 1 2 3 3 3 2 2 2 1 0 1 1 1 1 1 0 0 0 0 0 0
6 7 7 6 3 2 3 4 4 4 4 4 3 3 2 2 2 1 2 2 3 3 3 4 4 3 2 2 2 2 2 1 0 0 0 0 0 0
7 7 6 4 1 0 1 2 2 2 4 4 4 4 4 4 3 3 2 3 3 3 3 5 5 5 5 4 3 3 2 1 0 0 0 0 0 0
7 5 4 3 1 0 0 0 0 1 3 4 4 5 5 5 4 4 3 3 3 2 3 4 4 5 6 5 2 1 1 1 0 0 0 0 0 0
3 2 2 2 2 2 3 2 1 1 2 3 4 5 6 6 6 5 4 4 3 2 2 2 3 3 4 5 3 1 0 0 0 0 0 0 0 0
0 0 1 2 5 6 6 5 3 3 3 4 5 6 7 7 8 6 6 5 4 2 2 2 2 2 3 4 4 2 1 0 0 0 0 1 0 0
1 1 1 3 6 7 7 6 5 5 5 5 6 6 7 8 9 8 6 5 4 2 2 2 2 3 3 3 3 3 2 1 0 0 0 0 0 0
2 2 3 4 5 6 6 5 4 4 4 4 4 5 5 6 6 6 5 5 4 3 3 3 3 3 3 3 3 3 3 2 1 0 0 0 0 0
3 3 3 4 4 4 3 3 1 1 1 1 1 2 2 2 2 3 4 5 4 3 3 3 3 3 3 3 3 3 3 3 2 1 0 0 0 0
3 3 3 3 3 2 1 1 0 0 0 0 0 0 0 0 0 1 3 4 4 3 3 3 3 3 3 3 3 3 3 2 2 1 0 0 0 0
3 3 2 2 1 1 0 0 0 0 0 0 0 0 0 0 0 1 2 3 3 3 3 3 3 3 3 3 3 3 2 1 1 1 0 0 0 0
3 2 1 1 0 0 0 0 0 0 0 0 0 0 0 0 0 0 1 2 3 3 3 3 3 3 3 3 3 3 2 1 0 0 0 0 0 0

GEFSNE_con_probscp_318.txt.gz
Probability
0 1 2 3 3 3 3 3 3 2 1 0 0 0 0 0 0 0 0 0 0 0 0 0 0 0 0 0 0 0 0 0 0 0 1 2 2 1
1 2 3 3 3 3 3 3 3 2 1 0 0 0 0 0 0 0 0 0 0 0 0 0 0 0 0 0 0 0 0 0 0 0 0 1 1 0
3 4 4 4 3 3 3 3 3 2 1 0 0 0 0 0 0 0 0 0 0 0 0 0 0 0 0 0 0 0 0 0 0 0 0 0 0 0
5 6 5 4 3 3 3 3 3 2 1 0 0 0 0 0 0 0 0 0 0 0 0 0 0 0 0 0 0 0 0 0 0 0 0 0 0 0
6 6 6 5 4 3 3 4 3 2 1 0 0 0 0 0 0 0 0 0 0 0 0 0 0 0 0 0 0 0 0 0 0 0 0 0 0 0
6 6 6 6 6 5 4 5 4 2 1 0 0 0 0 0 0 0 0 0 0 0 0 0 0 0 0 0 0 0 0 0 0 0 0 0 0 0
5 5 5 6 7 5 4 5 5 3 2 1 0 0 0 0 0 0 0 0 0 0 0 0 0 1 1 1 0 0 0 0 0 0 0 0 0 0
5 4 4 5 6 5 4 3 3 3 3 4 3 1 1 2 1 1 1 1 1 1 0 0 1 2 2 2 1 0 0 0 0 0 0 0 0 0
6 6 6 6 6 6 5 4 3 2 3 5 6 5 5 4 3 3 2 2 2 2 1 0 1 2 3 2 1 0 0 0 0 0 0 0 0 0
7 8 9 8 6 6 7 7 6 5 4 5 7 7 7 6 5 4 4 4 4 3 2 2 2 3 3 3 1 0 0 0 0 0 0 0 0 0
9 9 9 7 5 5 6 8 8 7 5 5 5 5 5 5 5 5 6 5 5 5 5 5 5 5 4 3 2 0 0 0 0 0 0 0 0 0
11 10 8 5 3 2 4 7 7 6 6 5 4 4 5 5 5 6 6 6 6 7 7 7 7 7 6 5 3 1 1 1 0 0 0 0 0 0
10 9 7 3 1 1 2 4 4 4 5 6 6 6 7 8 7 6 6 7 8 8 8 9 9 8 8 7 5 3 2 2 1 1 1 0 0 0
7 7 5 2 0 0 0 1 1 2 4 6 6 7 9 10 9 8 7 8 9 9 9 10 10 9 9 8 6 4 3 3 3 2 1 0 0 0
5 4 3 1 0 0 0 0 0 0 3 5 6 7 9 9 9 9 9 9 9 9 9 9 9 8 8 7 6 5 4 3 3 2 1 0 0 0
2 2 1 0 0 0 0 0 0 0 1 4 6 7 8 8 8 9 9 8 8 7 7 7 6 5 5 4 4 4 3 2 1 1 0 0 0 0
1 1 1 0 0 1 2 1 1 0 0 2 3 5 7 7 6 6 7 7 7 6 6 5 4 3 2 2 2 2 1 1 0 0 0 0 0 0
1 1 2 1 1 2 3 3 2 1 1 1 2 3 5 5 4 4 4 5 6 5 5 4 3 2 2 2 1 1 0 0 0 0 0 0 0 0
0 1 2 3 3 3 3 3 3 3 2 2 2 3 4 4 3 3 3 3 3 3 3 3 2 2 2 2 2 1 0 0 0 0 0 0 0 0
0 1 2 3 3 3 3 3 3 3 3 3 3 3 3 3 3 3 2 1 1 1 1 1 1 2 3 3 3 1 0 0 0 0 0 0 0 0
0 0 1 3 3 3 3 3 3 3 3 3 3 3 2 2 2 2 1 0 0 0 0 0 0 1 1 2 2 2 1 1 0 0 0 0 0 0
0 0 1 2 3 3 3 3 3 3 3 2 2 1 1 1 1 1 0 0 0 0 0 0 0 0 0 1 1 2 2 1 1 0 0 0 0 0
0 0 1 2 3 3 3 3 3 3 2 1 1 0 0 0 0 1 0 0 0 0 0 0 0 0 0 0 0 1 1 1 1 1 0 0 0 0

GEFSNE_con_probscp_324.txt.gz
Probability
14 15 16 15 14 12 10 8 7 7 5 3 1 1 1 2 2 3 3 1 0 0 0 0 0 0 0 0 0 0 0 0 0 0 0 0 1 1
15 16 17 16 16 14 11 10 9 7 5 2 1 1 2 2 2 3 3 2 1 0 0 0 0 0 0 0 0 0 0 0 0 0 0 0 0 1
15 16 18 18 18 17 13 12 11 9 5 2 0 1 2 2 3 3 2 2 1 0 0 0 0 0 0 0 0 0 0 0 0 0 0 0 0 0
17 18 19 20 20 18 16 14 13 11 7 3 1 1 2 3 5 5 3 1 1 0 0 0 0 0 0 0 0 0 0 0 0 0 0 0 0 0
19 20 20 21 20 19 18 17 14 11 9 6 3 3 3 5 6 5 3 1 1 0 0 0 0 0 0 0 0 0 0 0 0 0 0 0 0 0
20 21 21 21 21 20 19 18 14 12 10 7 5 4 4 7 9 6 3 2 2 1 0 0 0 0 0 0 0 0 0 0 0 0 0 0 0 0
22 21 20 20 18 16 15 14 14 14 12 8 6 5 6 8 10 9 7 5 5 4 3 2 1 1 1 1 0 0 0 0 0 0 0 0 0 0
24 23 21 20 17 13 9 7 10 12 12 10 7 6 6 8 10 11 11 9 8 8 7 5 4 4 4 3 2 1 0 0 0 0 0 0 0 0
24 24 23 22 20 17 11 8 8 8 8 10 10 8 8 9 10 11 12 12 12 11 10 8 7 6 6 5 3 1 0 0 0 0 0 0 0 0
22 23 24 22 20 19 17 15 13 9 7 8 10 9 8 8 10 11 13 14 13 12 10 9 9 8 7 6 4 1 0 0 0 0 0 0 0 0
18 18 18 17 14 12 14 16 15 12 8 7 8 7 6 5 7 12 15 15 14 12 11 10 9 9 8 7 6 3 1 0 0 0 0 0 0 0
15 14 12 10 7 5 8 12 13 11 9 9 8 7 7 6 7 13 16 16 14 12 11 10 10 10 9 8 8 7 5 3 2 1 0 0 0 0
14 13 11 6 2 1 4 7 8 8 9 11 12 11 11 11 11 14 16 16 14 13 12 12 11 11 10 9 9 9 9 7 6 4 2 1 0 0
14 12 9 4 1 0 1 3 3 4 8 12 13 14 14 14 13 14 16 18 17 15 14 14 13 11 10 8 8 9 9 9 9 8 6 3 2 2
12 8 4 1 0 0 0 0 1 4 8 11 13 14 15 14 14 15 16 17 17 16 14 13 12 11 10 8 8 8 8 9 9 9 9 7 6 5
7 6 3 3 2 2 2 2 4 6 8 10 13 14 16 16 16 16 15 14 14 13 12 11 11 10 9 9 7 7 7 7 7 8 9 9 8 8
5 6 7 6 6 5 5 7 8 9 8 9 12 14 16 16 15 15 13 11 11 11 12 12 12 10 10 9 8 7 6 6 6 7 8 8 8 7
4 6 8 8 8 7 7 9 11 11 10 9 10 12 14 14 12 12 10 10 10 10 12 13 12 10 9 10 9 7 7 7 7 6 6 6 5 5
2 5 8 9 8 7 6 7 9 10 10 10 9 9 10 10 9 8 8 9 9 9 10 11 10 9 8 8 7 6 6 7 6 5 4 4 3 3
1 3 6 8 8 6 5 6 6 8 10 10 9 8 8 8 7 7 7 8 8 7 7 8 8 6 5 5 5 3 2 3 3 3 3 3 3 3
1 2 4 5 6 5 6 6 6 7 9 9 9 9 9 8 7 6 6 5 5 6 6 6 5 4 3 3 2 1 0 0 1 2 2 3 3 3
3 3 4 5 5 5 6 6 6 6 7 8 9 10 10 9 7 5 4 3 3 4 5 5 4 3 3 2 2 2 1 0 0 1 1 1 2 2
6 5 5 5 5 5 5 5 5 6 7 7 8 10 11 9 6 4 3 3 3 2 3 4 4 3 2 2 3 3 2 1 1 1 1 0 1 1

GEFSNE_con_probscp_330.txt.gz
Probability
23 24 23 21 18 19 21 23 19 13 9 9 5 2 3 4 4 4 4 2 1 0 0 0 0 0 0 0 0 0 0 0 0 0 0 1 1 1
25 27 26 23 19 18 20 22 20 16 13 11 8 5 4 4 4 4 5 4 2 1 1 0 0 0 0 0 0 0 0 0 0 0 0 0 0 0
26 27 26 24 22 20 20 20 20 19 15 12 10 8 8 8 7 7 6 5 4 3 2 1 0 0 0 0 0 0 0 0 0 0 0 0 0 0
24 25 24 24 24 24 23 22 21 20 17 13 11 9 10 11 12 11 8 7 6 4 3 1 1 1 0 0 0 0 0 0 0 0 0 0 0 0
21 22 24 25 25 26 26 25 23 22 20 17 13 10 9 10 12 12 10 10 9 7 4 2 2 2 1 0 0 0 0 0 0 0 0 0 0 0
20 22 24 23 23 24 25 25 25 25 24 21 17 13 10 9 11 12 11 12 12 10 7 4 4 3 1 0 0 0 0 0 0 0 0 0 0 0
23 24 23 19 18 19 19 19 21 23 24 21 18 16 13 12 12 11 10 11 13 12 10 8 6 5 4 2 1 0 0 0 0 0 0 0 0 0
26 25 21 16 15 15 13 12 14 16 17 18 18 18 16 14 12 10 9 11 13 13 13 12 10 9 8 6 3 1 0 0 0 0 0 0 0 0
26 25 21 17 15 15 12 10 10 10 10 12 14 14 13 12 11 10 10 11 13 13 12 12 11 11 10 8 6 3 1 0 0 0 0 0 0 0
24 24 22 18 15 13 13 12 12 11 7 6 7 8 7 7 7 8 9 11 11 11 10 10 10 10 9 8 6 3 1 0 0 0 0 0 0 0
23 22 20 17 11 9 10 14 16 14 8 4 4 4 2 2 3 5 7 8 8 8 9 9 9 9 8 7 6 3 1 0 0 0 0 0 0 0
21 19 16 12 7 5 7 11 14 13 9 7 6 4 2 2 2 3 5 6 6 7 10 11 11 10 10 8 7 5 3 1 1 0 0 0 0 0
17 18 15 8 3 2 4 7 8 8 7 8 8 6 5 5 5 5 6 7 7 8 10 12 12 12 11 10 10 9 7 5 3 2 1 1 0 0
15 15 12 6 1 0 1 2 3 3 5 7 8 7 6 7 9 10 10 9 9 8 9 10 12 13 12 11 10 10 9 8 7 5 3 2 1 0
10 9 7 3 1 0 0 0 0 1 5 7 8 8 7 8 12 14 13 10 9 8 8 10 13 13 12 11 10 10 9 9 9 8 6 4 1 0
4 4 3 3 2 2 3 3 3 4 6 8 9 9 9 10 12 13 12 10 9 8 8 11 13 14 14 13 11 9 8 8 9 9 9 7 3 1
0 1 3 5 7 7 8 9 8 7 7 8 9 9 9 9 9 11 10 9 8 7 7 9 12 12 12 11 9 7 7 8 8 9 9 8 5 3
0 0 2 6 10 10 11 12 11 9 8 7 7 7 7 6 7 8 9 8 7 6 6 6 8 8 8 6 6 5 6 6 6 7 8 8 6 4
1 1 2 4 8 10 10 10 10 9 8 6 5 4 4 4 5 6 7 7 6 5 4 4 5 5 4 3 3 4 3 3 4 4 5 6 4 3
2 3 3 4 6 9 10 9 9 9 8 6 4 3 2 2 3 5 6 7 6 4 3 3 4 4 3 3 3 2 1 1 2 1 2 3 3 2
5 5 6 6 8 9 10 10 9 9 9 7 6 4 3 3 3 4 6 6 6 5 3 2 2 2 2 2 1 1 0 0 0 0 1 2 2 2
9 9 10 9 10 11 11 10 9 8 9 8 7 6 5 4 4 5 6 6 6 4 2 1 1 1 1 1 0 0 0 0 0 0 0 1 1 1
12 13 12 10 11 12 12 10 8 7 8 9 8 7 6 6 5 6 6 6 4 3 2 1 0 0 0 0 0 0 0 0 0 0 0 0 0 0

GEFSNE_con_probscp_336.txt.gz
Probability
6 6 6 5 4 2 0 0 1 2 2 1 0 0 0 0 0 0 1 1 1 0 0 0 0 0 0 0 0 0 0 0 0 1 1 1 0 0
6 6 6 6 5 3 2 1 2 3 2 1 0 0 0 0 0 0 0 0 0 0 0 0 0 0 0 0 0 0 0 0 0 0 0 0 0 0
7 7 8 7 6 6 5 4 3 3 3 1 0 0 0 0 1 1 1 1 1 1 1 1 1 0 0 0 0 0 0 0 0 0 0 0 0 0
9 9 9 7 6 7 7 6 5 5 3 2 2 1 1 1 2 2 2 2 2 2 2 2 2 1 0 0 0 0 0 0 0 0 0 0 0 0
10 10 9 7 6 7 7 7 6 6 4 3 3 3 2 3 3 2 1 1 1 1 3 3 2 1 0 0 0 0 0 0 0 0 0 0 0 0
9 9 9 8 7 7 8 7 6 5 5 4 3 3 3 3 2 1 0 0 0 1 2 2 1 1 0 0 0 0 0 0 0 0 0 0 0 0
9 9 9 9 7 6 6 6 5 4 4 3 2 2 2 1 1 0 0 0 0 0 1 1 1 1 1 1 0 0 0 0 0 0 0 0 0 0
9 9 9 9 8 6 4 3 3 3 3 2 1 1 1 0 0 0 0 0 0 0 0 0 1 3 3 2 1 0 0 0 0 0 0 0 0 0
7 7 7 8 8 7 4 2 2 3 3 2 1 1 0 0 0 0 0 0 0 0 0 0 2 4 4 3 1 0 0 0 0 0 0 0 0 0
4 5 6 7 8 7 5 4 3 2 2 2 2 2 1 0 0 0 0 0 0 0 0 0 1 2 3 2 1 0 0 0 0 0 0 0 0 0
4 5 6 7 7 6 6 5 4 3 2 1 1 1 1 0 0 0 0 0 0 0 0 0 0 0 1 1 0 0 0 0 0 0 0 0 0 0
3 4 5 5 5 4 4 4 4 3 3 2 1 1 0 0 0 0 0 0 0 0 0 0 0 0 0 0 0 0 0 0 0 0 0 0 0 0
1 1 2 3 3 2 2 2 3 2 3 3 2 1 1 1 0 0 0 0 0 0 0 0 0 0 0 0 0 0 0 0 0 0 0 0 0 0
0 0 0 1 1 1 0 1 1 1 1 2 3 3 3 2 1 0 0 0 0 0 0 0 0 0 0 0 0 0 0 0 0 0 0 0 0 0
0 0 0 0 0 0 0 0 0 0 0 1 3 3 4 3 1 0 0 0 0 0 0 0 0 0 0 0 1 1 1 0 0 0 0 0 0 0
1 0 0 0 0 0 0 0 0 0 0 1 2 3 3 3 1 1 0 0 0 0 0 0 0 0 0 1 1 2 2 1 1 0 0 0 0 0
1 1 1 1 0 0 0 0 0 0 0 1 2 3 3 3 3 2 1 0 0 0 0 0 0 0 1 1 2 3 3 3 2 1 0 0 0 0
1 1 2 2 1 1 1 0 0 0 0 0 1 2 3 3 3 2 1 0 0 0 0 0 0 0 0 1 1 2 2 2 2 1 0 0 0 0
1 2 3 3 3 2 2 1 0 0 0 0 0 1 2 3 3 3 1 0 0 0 0 0 0 0 0 0 1 1 1 1 1 1 0 0 0 0
0 1 2 3 3 3 2 1 0 0 0 0 0 0 1 2 3 4 2 1 0 0 0 0 0 0 0 0 0 0 0 0 0 0 0 0 0 0
0 0 1 2 2 2 2 1 0 0 0 0 0 1 1 2 2 3 3 1 0 0 0 0 0 0 0 0 0 0 0 0 0 0 0 0 0 0
0 0 0 1 1 1 2 2 1 1 1 1 1 2 2 2 2 2 3 2 1 0 0 0 0 0 0 0 0 0 0 0 0 0 0 0 0 0
0 0 0 0 0 1 2 3 2 2 2 2 2 3 3 3 2 2 3 2 1 0 0 0 0 0 0 0 0 0 0 0 0 0 0 0 0 0

GEFSNE_con_probscp_342.txt.gz
Probability
4 5 6 7 6 4 2 1 1 1 2 1 0 1 2 2 1 0 0 1 1 1 1 0 0 0 0 0 0 0 0 0 0 0 0 0 1 1
3 5 7 8 8 6 4 3 3 3 3 2 1 1 1 1 0 0 0 1 1 1 1 0 0 0 0 0 0 0 0 0 0 0 0 0 0 1
2 4 7 9 10 9 8 6 4 4 3 3 3 2 2 2 1 0 0 1 1 1 1 0 0 0 0 0 0 0 0 0 0 0 0 0 0 0
4 5 8 10 10 10 10 9 7 6 4 4 4 3 3 3 2 0 0 0 1 0 0 0 0 0 0 0 0 0 0 0 0 0 0 0 0 0
8 8 9 10 10 11 11 11 11 9 6 5 5 4 3 2 1 0 0 0 0 0 0 0 0 0 0 0 0 0 0 0 0 0 0 0 0 0
10 10 9 9 10 11 12 12 12 10 8 7 5 3 2 1 0 0 0 0 0 0 0 0 0 0 0 0 0 0 0 0 0 0 0 0 0 0
9 9 8 7 8 9 8 8 9 8 7 6 4 2 1 0 0 0 0 0 0 0 0 0 0 0 0 0 0 0 0 0 0 0 0 0 0 0
7 7 6 5 5 6 5 4 5 5 4 4 3 3 2 1 0 0 0 0 0 0 0 0 0 0 0 0 0 0 0 0 0 0 0 0 0 0
4 4 4 4 5 5 5 4 3 3 3 3 3 3 3 2 1 0 0 0 0 0 0 0 0 0 0 0 0 0 0 0 0 0 0 0 0 0
3 3 3 4 4 5 6 5 5 4 3 3 3 3 3 2 1 1 1 0 0 0 0 0 0 0 0 0 0 0 0 0 0 0 0 0 0 0
2 2 1 1 2 3 3 4 5 5 4 3 3 2 2 1 1 1 0 0 0 1 1 1 0 0 0 0 0 0 0 0 0 0 0 0 0 0
1 1 0 0 0 1 1 2 3 3 3 3 2 1 1 1 1 1 1 1 2 2 2 1 0 0 0 0 0 0 0 0 0 0 0 0 0 0
0 0 0 0 0 0 0 1 1 1 1 2 2 1 1 1 2 2 2 3 4 4 4 2 0 0 0 0 0 0 0 0 0 0 0 0 0 0
1 1 0 0 0 0 0 0 0 0 0 1 1 1 0 1 2 3 4 4 5 6 5 2 1 0 0 0 0 0 0 0 0 0 0 0 1 1
2 1 0 0 0 0 0 0 0 0 0 0 0 0 0 0 1 2 4 5 4 5 6 4 2 1 0 0 0 0 0 0 0 0 0 0 1 2
2 1 1 1 1 1 0 0 0 0 0 0 0 0 0 0 0 1 3 4 4 5 6 5 4 2 1 0 0 0 0 0 0 0 0 0 1 2
2 2 2 2 2 2 1 1 0 0 0 0 0 0 0 0 0 0 2 3 4 4 5 5 5 4 2 1 1 0 0 0 0 0 0 0 1 2
1 2 3 3 3 3 3 2 1 1 1 1 1 1 1 0 0 0 1 2 2 2 2 3 5 4 3 2 1 0 1 1 0 0 0 0 1 2
0 1 1 2 2 2 3 3 3 2 2 2 2 2 2 1 0 0 0 1 1 0 0 1 3 3 3 2 2 1 1 1 0 0 0 0 0 1
0 0 0 1 1 1 1 2 2 3 3 3 3 3 3 2 1 0 0 0 0 0 0 0 1 1 3 3 3 2 1 1 0 0 0 0 0 0
0 0 0 0 0 0 0 1 1 1 2 2 2 3 3 3 2 1 1 0 0 0 0 0 0 1 2 3 3 2 1 0 0 0 0 0 0 0
1 1 1 0 0 0 0 0 0 0 1 1 1 1 2 2 2 2 1 0 0 0 0 0 0 0 1 1 1 1 0 0 0 0 0 0 0 0
2 2 2 1 0 0 0 0 0 0 0 0 0 0 1 1 1 1 0 0 0 0 0 0 0 0 0 0 0 0 0 0 0 0 0 0 0 0

GEFSNE_con_probscp_348.txt.gz
Probability
7 9 12 13 14 13 13 14 13 10 8 9 12 11 7 4 3 4 3 1 0 0 0 0 0 0 0 0 0 0 0 0 0 0 0 1 2 2
10 11 13 13 13 13 14 14 14 12 10 11 12 11 8 5 4 3 3 1 0 0 0 0 0 0 0 0 0 0 0 0 0 0 0 0 1 1
13 14 14 14 12 13 13 13 12 12 11 11 12 11 9 8 6 5 3 3 2 0 0 0 0 0 0 0 0 0 0 0 0 0 0 0 0 0
14 15 16 14 13 13 13 12 11 10 10 10 10 9 9 9 9 7 4 3 2 1 0 0 0 0 0 0 0 0 0 0 0 0 0 0 0 0
16 16 16 14 13 14 14 13 12 11 10 10 10 9 8 8 9 7 5 3 2 0 0 0 0 0 0 0 0 0 0 0 0 0 0 0 0 0
19 18 16 12 11 13 14 14 14 13 12 12 10 8 7 7 8 7 6 5 2 0 0 0 0 0 0 0 0 0 0 0 0 0 0 0 0 0
21 18 14 10 9 11 12 13 14 14 14 13 11 9 7 7 7 8 7 6 4 2 1 0 0 0 0 0 0 0 0 0 0 0 0 0 0 0
21 18 12 8 7 8 9 9 10 11 12 12 11 10 9 8 9 9 9 7 5 3 2 1 1 1 1 0 0 0 0 0 0 0 0 0 0 0
19 16 12 9 7 7 6 5 6 6 7 8 9 9 8 8 9 9 9 8 7 5 2 1 1 2 2 1 0 0 0 0 0 0 0 0 0 0
18 16 13 11 8 6 6 5 5 4 3 4 5 5 5 5 6 8 8 8 7 5 2 1 1 2 1 1 0 0 0 0 0 0 0 0 0 0
20 17 13 9 6 5 5 5 5 5 3 2 2 2 2 2 3 5 6 5 5 3 2 2 2 2 2 1 0 0 0 0 0 0 0 0 0 0
19 17 12 6 3 3 4 4 5 6 4 2 2 1 2 2 3 4 4 4 3 3 4 4 4 3 3 2 2 1 1 1 0 0 0 0 0 0
17 16 12 4 1 1 2 2 3 4 5 5 3 3 4 5 5 6 6 5 5 5 6 7 6 5 5 5 5 5 4 3 2 1 1 0 0 0
16 15 10 3 0 0 0 1 1 2 4 6 5 4 5 6 6 7 8 8 8 8 9 8 7 7 6 7 8 7 6 6 5 4 3 1 0 0
13 10 5 1 0 0 0 0 0 2 5 6 6 5 5 5 6 8 9 9 10 9 8 7 7 7 7 7 8 8 8 8 7 6 4 3 1 1
8 6 3 1 1 1 2 2 2 4 6 6 6 6 5 5 6 7 7 8 8 8 7 8 8 8 7 7 7 8 8 8 6 5 4 3 2 2
7 6 4 3 3 3 5 5 5 6 6 6 6 6 5 4 4 5 6 6 6 7 8 10 10 8 6 5 6 6 6 6 5 3 2 2 1 1
8 8 7 6 5 5 6 7 7 7 7 6 6 5 4 3 3 5 6 6 6 7 9 10 9 6 3 3 3 4 4 4 3 2 1 1 0 0
9 9 9 9 8 7 7 8 9 8 8 7 7 5 4 3 3 5 7 8 7 7 7 7 6 4 1 1 1 1 2 3 2 1 0 0 0 0
10 10 9 9 9 9 9 10 11 11 10 9 8 6 5 4 4 6 8 8 7 7 5 4 4 2 1 0 0 0 1 1 1 1 1 0 0 0
10 10 9 9 9 10 11 12 12 13 12 11 9 7 6 6 6 7 8 8 7 6 4 4 5 3 2 1 0 0 0 0 1 2 1 0 0 0
9 9 9 9 9 10 12 13 13 13 12 10 9 8 8 7 7 7 7 7 7 6 5 6 7 6 4 2 1 0 1 1 2 1 1 0 1 1
8 8 8 9 10 10 12 13 13 11 11 10 10 9 9 9 8 7 6 7 7 7 6 7 8 8 6 3 2 1 1 2 2 2 1 0 1 0

GEFSNE_con_probscp_354.txt.gz
Probability
17 16 14 15 15 16 17 17 16 14 13 14 14 14 14 10 6 5 3 1 0 0 0 0 0 0 0 0 0 0 0 0 0 0 0 0 1 3
21 19 17 16 16 16 17 18 18 16 15 13 12 12 12 11 8 6 4 1 0 0 0 0 0 0 0 0 0 0 0 0 0 0 0 0 0 1
21 19 18 17 16 16 17 18 21 20 16 13 11 11 12 12 10 8 6 3 2 0 0 0 0 0 0 0 0 0 0 0 0 0 0 0 0 0
20 19 18 18 18 18 18 21 23 21 18 14 12 12 13 12 11 8 6 5 4 1 0 0 0 0 0 0 0 0 0 0 0 0 0 0 0 0
22 21 20 21 22 22 22 24 23 19 17 16 14 12 11 10 8 5 4 4 3 2 0 0 0 0 0 0 0 0 0 0 0 0 0 0 0 0
28 26 24 23 23 23 23 23 20 17 16 15 14 10 8 6 6 4 3 2 2 2 1 0 0 0 0 0 0 0 0 0 0 0 0 0 0 0
33 30 26 21 18 18 19 18 16 15 14 14 11 9 7 6 7 6 4 4 4 3 3 2 1 0 0 0 0 0 0 0 0 0 0 0 0 0
34 31 25 19 16 14 12 10 10 11 12 13 12 10 9 10 11 10 8 6 5 5 5 4 3 2 1 1 0 0 0 0 0 0 0 0 0 0
35 33 26 21 19 17 14 9 7 8 10 12 12 11 9 10 12 10 8 6 6 6 6 5 5 4 3 2 0 0 0 0 0 0 0 0 0 0
35 34 30 24 21 19 17 13 10 9 9 8 9 8 6 6 7 7 6 5 5 6 6 5 5 5 4 2 1 0 0 0 0 0 0 0 0 0
27 25 24 21 17 15 15 15 13 11 9 6 4 3 2 1 2 4 5 4 4 5 5 4 4 4 4 3 1 0 0 0 0 0 0 0 0 0
17 15 13 11 10 8 10 13 13 11 9 6 3 3 3 2 1 2 4 4 3 4 3 2 1 2 2 2 1 0 0 0 0 0 0 0 0 0
13 11 8 6 4 5 7 10 10 9 8 6 4 5 7 6 4 4 4 4 3 3 2 1 0 0 0 0 0 0 0 0 0 0 0 0 0 0
12 10 7 4 2 2 3 5 5 5 5 5 5 5 6 7 7 7 7 6 5 4 3 1 1 1 1 0 0 0 1 1 1 1 1 0 0 0
9 8 5 3 1 1 2 2 2 3 4 4 4 4 3 4 7 8 8 8 7 5 4 5 6 5 3 1 1 1 3 3 2 2 2 1 0 0
5 5 5 3 3 3 3 4 4 5 4 4 4 4 3 4 6 7 7 7 6 6 7 9 11 9 5 3 2 2 3 3 1 1 1 1 0 1
4 5 6 7 6 6 7 7 8 9 8 7 7 6 5 5 6 7 6 6 5 5 6 7 9 10 6 4 3 2 2 2 1 0 0 0 0 1
5 7 10 11 11 9 9 9 10 12 12 12 10 8 7 6 7 7 6 5 4 3 3 4 6 7 5 3 2 2 1 1 0 0 1 1 0 1
7 9 12 14 14 13 12 10 9 11 12 11 10 8 7 7 8 8 6 5 4 3 2 3 5 5 4 2 1 1 2 2 1 0 1 1 0 0
9 9 10 12 14 14 13 11 9 9 10 10 9 7 6 6 7 7 6 6 5 4 4 3 3 3 3 3 2 2 2 2 1 1 1 1 0 0
8 7 6 7 9 12 11 9 8 9 10 9 8 7 7 8 7 7 6 6 6 6 5 5 4 4 5 5 4 4 3 1 1 1 1 1 0 0
5 5 5 5 7 10 11 9 8 8 9 9 8 7 7 8 7 7 6 6 6 6 7 7 6 6 7 6 5 4 3 2 1 2 2 1 1 1
4 4 5 5 7 11 12 9 8 7 8 8 7 7 7 7 7 6 6 6 6 6 7 7 8 8 7 6 5 3 2 1 2 4 3 1 1 0